KLM777 EDDF-EGLL

Flight info

Callsign KLM777
Flight time N/A
Altitude 40000
Route OBOKA5G/25C OBOKA Z29 TORNU DCT ABNED L980 LOGAN
Aircraft A359/H-SDE2E3GHIJ3J4J5LM1ORWXY/LB1D1

Departure

Time N/A
Airport Frankfurt Main Airport (EDDF)

Arrival

Time 2026-05-05 12:14
Airport London Heathrow Airport (EGLL)
Time Latitude Longitude Altitude Speed Heading
2026-05-05 11:29 51.21953 5.70242 39892 ft 476 kts 291°
2026-05-05 11:30 51.24535 5.60481 39908 ft 477 kts 291°
2026-05-05 11:30 51.27117 5.50716 39908 ft 476 kts 291°
2026-05-05 11:30 51.28382 5.45903 39699 ft 478 kts 291°
2026-05-05 11:31 51.29691 5.40889 39567 ft 487 kts 291°
2026-05-05 11:31 51.32305 5.30835 39537 ft 495 kts 291°
2026-05-05 11:32 51.34951 5.20622 39538 ft 498 kts 291°
2026-05-05 11:32 51.37592 5.10375 39571 ft 498 kts 291°
2026-05-05 11:33 51.40209 5.00164 39596 ft 498 kts 291°
2026-05-05 11:33 51.42826 4.89883 39605 ft 498 kts 291°
2026-05-05 11:34 51.45431 4.79583 39605 ft 498 kts 291°
2026-05-05 11:34 51.47996 4.69328 39226 ft 489 kts 290°
2026-05-05 11:34 51.49244 4.64309 38831 ft 481 kts 290°
2026-05-05 11:35 51.50483 4.59343 38371 ft 476 kts 290°
2026-05-05 11:35 51.51714 4.54425 37699 ft 473 kts 290°
2026-05-05 11:35 51.52947 4.49506 36978 ft 473 kts 289°
2026-05-05 11:35 51.54172 4.44611 36250 ft 472 kts 289°
2026-05-05 11:36 51.55383 4.39766 35512 ft 472 kts 289°
2026-05-05 11:36 51.56604 4.34863 34803 ft 472 kts 288°
2026-05-05 11:36 51.57827 4.29943 34073 ft 472 kts 288°
2026-05-05 11:36 51.59038 4.25045 33231 ft 472 kts 288°
2026-05-05 11:37 51.60251 4.20106 32295 ft 474 kts 288°
2026-05-05 11:37 51.61458 4.15175 31494 ft 474 kts 288°
2026-05-05 11:37 51.62661 4.10255 30813 ft 471 kts 289°
2026-05-05 11:37 51.63843 4.05430 30199 ft 468 kts 289°
2026-05-05 11:38 51.65032 4.00572 29516 ft 464 kts 289°
2026-05-05 11:38 51.66213 3.95741 28833 ft 461 kts 289°
2026-05-05 11:38 51.67382 3.90953 28170 ft 457 kts 289°
2026-05-05 11:38 51.68537 3.86206 27552 ft 453 kts 290°
2026-05-05 11:39 51.69684 3.81482 26949 ft 449 kts 290°
2026-05-05 11:39 51.70818 3.76801 26341 ft 446 kts 290°
2026-05-05 11:39 51.71939 3.72163 25758 ft 442 kts 290°
2026-05-05 11:39 51.73049 3.67554 25223 ft 438 kts 289°
2026-05-05 11:40 51.74135 3.63031 24986 ft 437 kts 290°
2026-05-05 11:40 51.75235 3.58451 24950 ft 438 kts 290°
2026-05-05 11:40 51.76169 3.53788 24945 ft 436 kts 282°
2026-05-05 11:40 51.76626 3.48968 24947 ft 433 kts 272°
2026-05-05 11:41 51.76730 3.44123 24949 ft 432 kts 269°
2026-05-05 11:41 51.76744 3.39283 24951 ft 431 kts 269°
2026-05-05 11:41 51.76737 3.34433 24955 ft 431 kts 268°
2026-05-05 11:41 51.76722 3.29591 24952 ft 431 kts 268°
2026-05-05 11:42 51.76704 3.24817 24952 ft 431 kts 268°
2026-05-05 11:42 51.76681 3.19982 24953 ft 431 kts 268°
2026-05-05 11:42 51.76657 3.15127 24953 ft 431 kts 268°
2026-05-05 11:42 51.76631 3.10293 24952 ft 431 kts 268°
2026-05-05 11:43 51.76601 3.05459 24951 ft 431 kts 268°
2026-05-05 11:43 51.76571 3.00623 24953 ft 431 kts 268°
2026-05-05 11:43 51.76539 2.95785 24953 ft 431 kts 268°
2026-05-05 11:43 51.76505 2.90995 24954 ft 431 kts 268°
2026-05-05 11:44 51.76468 2.86157 24954 ft 431 kts 268°
2026-05-05 11:44 51.76428 2.81312 24956 ft 431 kts 268°
2026-05-05 11:44 51.76386 2.76472 24958 ft 431 kts 268°
2026-05-05 11:44 51.76344 2.71628 24958 ft 431 kts 268°
2026-05-05 11:45 51.76299 2.66765 24957 ft 431 kts 268°
2026-05-05 11:45 51.76254 2.61923 24960 ft 431 kts 268°
2026-05-05 11:45 51.76206 2.57129 24958 ft 431 kts 268°
2026-05-05 11:45 51.76157 2.52286 24962 ft 432 kts 268°
2026-05-05 11:46 51.76104 2.47441 24964 ft 432 kts 267°
2026-05-05 11:46 51.76048 2.42590 24963 ft 432 kts 267°
2026-05-05 11:46 51.75991 2.37745 24964 ft 432 kts 268°
2026-05-05 11:46 51.75932 2.32901 24965 ft 432 kts 268°
2026-05-05 11:47 51.75872 2.28045 24965 ft 432 kts 268°
2026-05-05 11:47 51.75809 2.23195 24964 ft 432 kts 267°
2026-05-05 11:47 51.75744 2.18350 24968 ft 432 kts 267°
2026-05-05 11:47 51.75678 2.13500 24966 ft 432 kts 267°
2026-05-05 11:48 51.75538 2.03805 24970 ft 432 kts 267°
2026-05-05 11:48 51.75465 1.98953 24965 ft 432 kts 267°
2026-05-05 11:48 51.75389 1.94094 24967 ft 432 kts 267°
2026-05-05 11:49 51.75312 1.89301 24974 ft 432 kts 267°
2026-05-05 11:49 51.75234 1.84450 24972 ft 432 kts 267°
2026-05-05 11:49 51.75154 1.79609 24977 ft 432 kts 267°
2026-05-05 11:49 51.75069 1.74757 24963 ft 432 kts 267°
2026-05-05 11:50 51.74982 1.69903 24977 ft 432 kts 267°
2026-05-05 11:50 51.74895 1.65052 24980 ft 432 kts 267°
2026-05-05 11:50 51.74769 1.60262 24638 ft 424 kts 264°
2026-05-05 11:50 51.74510 1.55524 23927 ft 424 kts 263°
2026-05-05 11:51 51.74216 1.50780 23249 ft 423 kts 263°
2026-05-05 11:51 51.73913 1.46081 22558 ft 420 kts 263°
2026-05-05 11:51 51.73607 1.41398 21889 ft 417 kts 263°
2026-05-05 11:51 51.73304 1.36805 21245 ft 413 kts 263°
2026-05-05 11:52 51.72998 1.32214 20611 ft 410 kts 263°
2026-05-05 11:52 51.72691 1.27650 19979 ft 407 kts 263°
2026-05-05 11:52 51.72387 1.23134 19357 ft 404 kts 263°
2026-05-05 11:52 51.72081 1.18641 18762 ft 401 kts 264°
2026-05-05 11:53 51.71777 1.14192 18156 ft 398 kts 264°
2026-05-05 11:53 51.71478 1.09826 17492 ft 395 kts 264°
2026-05-05 11:53 51.71175 1.05432 16844 ft 392 kts 264°
2026-05-05 11:53 51.70873 1.01095 16250 ft 388 kts 264°
2026-05-05 11:54 51.70573 0.96798 15891 ft 383 kts 264°
2026-05-05 11:54 51.70278 0.92551 15517 ft 379 kts 264°
2026-05-05 11:54 51.69985 0.88331 15104 ft 378 kts 264°
2026-05-05 11:54 51.69693 0.84140 14619 ft 374 kts 264°
2026-05-05 11:55 51.69401 0.79978 14068 ft 371 kts 264°
2026-05-05 11:55 51.69115 0.75927 13834 ft 358 kts 264°
2026-05-05 11:55 51.68840 0.72014 13623 ft 345 kts 264°
2026-05-05 11:55 51.68578 0.68283 13422 ft 332 kts 264°
2026-05-05 11:56 51.68321 0.64653 13218 ft 321 kts 264°
2026-05-05 11:56 51.68070 0.61140 13042 ft 309 kts 264°
2026-05-05 11:56 51.67826 0.57755 12878 ft 298 kts 265°
2026-05-05 11:56 51.67588 0.54494 12729 ft 287 kts 265°
2026-05-05 11:57 51.67358 0.51355 12592 ft 277 kts 265°
2026-05-05 11:57 51.67138 0.48349 12410 ft 269 kts 265°
2026-05-05 11:57 51.66919 0.45372 12120 ft 267 kts 265°
2026-05-05 11:57 51.66700 0.42407 11791 ft 265 kts 265°
2026-05-05 11:58 51.66483 0.39472 11474 ft 263 kts 265°
2026-05-05 11:58 51.66266 0.36545 11160 ft 262 kts 265°
2026-05-05 11:58 51.66051 0.33643 10859 ft 260 kts 265°
2026-05-05 11:58 51.65836 0.30748 10536 ft 259 kts 264°
2026-05-05 11:59 51.65623 0.27905 10241 ft 258 kts 264°
2026-05-05 11:59 51.65410 0.25051 9933 ft 256 kts 265°
2026-05-05 11:59 51.65196 0.22204 9602 ft 255 kts 265°
2026-05-05 11:59 51.64982 0.19371 9264 ft 254 kts 264°
2026-05-05 12:00 51.64767 0.16549 8916 ft 253 kts 264°
2026-05-05 12:00 51.64515 0.13737 8581 ft 252 kts 265°
2026-05-05 12:00 51.64343 0.10931 8252 ft 251 kts 266°
2026-05-05 12:00 51.64187 0.08136 8001 ft 249 kts 266°
2026-05-05 12:01 51.64033 0.05349 7970 ft 250 kts 266°
2026-05-05 12:01 51.63881 0.02597 7968 ft 250 kts 266°
2026-05-05 12:01 51.63726 -0.00195 7965 ft 250 kts 266°
2026-05-05 12:01 51.63571 -0.02981 7965 ft 250 kts 266°
2026-05-05 12:02 51.63416 -0.05772 7969 ft 250 kts 266°
2026-05-05 12:02 51.63261 -0.08555 7990 ft 250 kts 266°
2026-05-05 12:02 51.63106 -0.11345 7986 ft 250 kts 266°
2026-05-05 12:02 51.62949 -0.14132 7991 ft 250 kts 266°
2026-05-05 12:03 51.62791 -0.16927 7992 ft 250 kts 266°
2026-05-05 12:03 51.62633 -0.19713 7993 ft 250 kts 266°
2026-05-05 12:03 51.62476 -0.22498 8000 ft 250 kts 266°
2026-05-05 12:03 51.62320 -0.25288 7992 ft 250 kts 266°
2026-05-05 12:04 51.62163 -0.28077 7996 ft 250 kts 266°
2026-05-05 12:04 51.62007 -0.30832 7992 ft 250 kts 266°
2026-05-05 12:04 51.61850 -0.33613 7971 ft 250 kts 266°
2026-05-05 12:04 51.61692 -0.36398 7965 ft 250 kts 266°
2026-05-05 12:05 51.61534 -0.39179 7966 ft 250 kts 266°
2026-05-05 12:05 51.61376 -0.41965 7966 ft 250 kts 266°
2026-05-05 12:05 51.61217 -0.44746 7969 ft 250 kts 266°
2026-05-05 12:05 51.61057 -0.47530 7966 ft 250 kts 266°
2026-05-05 12:06 51.60896 -0.50316 7963 ft 250 kts 266°
2026-05-05 12:06 51.60737 -0.53082 7821 ft 247 kts 266°
2026-05-05 12:06 51.60579 -0.55839 7465 ft 248 kts 266°
2026-05-05 12:06 51.60419 -0.58602 7137 ft 248 kts 266°
2026-05-05 12:07 51.60125 -0.61332 6774 ft 249 kts 251°
2026-05-05 12:07 51.59313 -0.63796 6471 ft 249 kts 238°
2026-05-05 12:07 51.58350 -0.66101 6151 ft 248 kts 236°
2026-05-05 12:07 51.57372 -0.68379 5816 ft 247 kts 236°
2026-05-05 12:08 51.56388 -0.70651 5496 ft 247 kts 236°
2026-05-05 12:08 51.55416 -0.72886 5165 ft 247 kts 237°
2026-05-05 12:08 51.54427 -0.75148 4869 ft 246 kts 236°
2026-05-05 12:08 51.53436 -0.77396 4549 ft 246 kts 236°
2026-05-05 12:09 51.52443 -0.79613 4266 ft 244 kts 233°
2026-05-05 12:09 51.51137 -0.81326 3889 ft 245 kts 205°
2026-05-05 12:09 51.49490 -0.81864 3535 ft 243 kts 175°
2026-05-05 12:09 51.47957 -0.80920 3199 ft 236 kts 139°
2026-05-05 12:10 51.47111 -0.78790 3013 ft 225 kts 99°
2026-05-05 12:10 51.47194 -0.76333 3008 ft 222 kts 77°
2026-05-05 12:10 51.47480 -0.73891 2991 ft 223 kts 80°
2026-05-05 12:10 51.47612 -0.71444 2941 ft 221 kts 86°
2026-05-05 12:11 51.47642 -0.68976 2671 ft 221 kts 88°
2026-05-05 12:11 51.47675 -0.66523 2355 ft 219 kts 86°
2026-05-05 12:11 51.47683 -0.64902 2158 ft 220 kts 88°
2026-05-05 12:11 51.47685 -0.62446 1845 ft 220 kts 88°
2026-05-05 12:12 51.47695 -0.59997 1553 ft 218 kts 88°
2026-05-05 12:12 51.47706 -0.57619 1273 ft 206 kts 88°
2026-05-05 12:12 51.47719 -0.54738 890 ft 184 kts 87°
2026-05-05 12:12 51.47726 -0.53391 730 ft 174 kts 86°
2026-05-05 12:13 51.47734 -0.51552 486 ft 154 kts 87°
2026-05-05 12:13 51.47739 -0.49955 307 ft 136 kts 87°
2026-05-05 12:13 51.47746 -0.48489 145 ft 128 kts 86°
2026-05-05 12:13 51.47750 -0.47153 129 ft 111 kts 91°
2026-05-05 12:14 51.47771 -0.45991 94 ft 98 kts 89°
2026-05-05 12:14 51.47695 -0.45154 98 ft 31 kts 143°
2026-05-05 12:14 51.47666 -0.45125 97 ft 0 kts 146°